Location: Bakhuizen
(52.8696°N, 5.4575°E)
Time: 22:10:57
(UTC+00:00)

Okean 1 - Pass Details

Date: 11 May 2021
Orbit: 538 x 554 km, 82.5° (Epoch: 23 June)

Event Time Altitude Azimuth Distance (km) Brightness Sun altitude
Exits shadow 22:29:20 40° 176° (S) 818 3.7 -17.6°
Maximum altitude 22:30:41 76° 99° (E) 570 3.2 -17.7°
Drops below altitude 10° 22:34:42 10° 14° (NNE) 1,826 6.9 -17.8°
Sets 22:36:52 0° 13° (NNE) 2,721 8.0 -17.9°
